Orbital elements:
2004 KZ18
Epoch 2011 Aug. 27.0 TT = JDT 2455800.5 MPC
M 1.55558 (2000.0) P Q
n 0.00240026 Peri. 11.31054 -0.45882100 +0.83473447
a 55.2455528 Node 232.14802 -0.84233342 -0.51768366
e 0.3799509 Incl. 22.68101 -0.28276793 +0.18767526
P 411 H 8.5 G 0.15 U 4